FENGYUN 2G AKM, 40369

Orbit data source: Space-Track

FENGYUN 2G AKM, 40369 is space debris in GEO originally from a launch on Wed, 31 Dec 2014 UTC launched from the Xichang Space Center, China (XSC). Debris objects in space refer to the collection of defunct objects orbiting the Earth. Examples of debris include non-operational satellites, rocket bodies, and fragments generated from explosions, collisions, or faulty payload assembly.

Not visible in the next 10 days
Identifier
40369, 2014-090C
Orbit
GEO
Country
Flag of CNCN / PRC
Related business
Manufacturer
China ARMT
Mission
Spacecraft
Bus & Motor
SHANXI AKM, Unknown motor
Mass
~50 kg wet, ~50 kg dry
Launch date (UTC)
2014-12-31 (11 years ago)
Launch vehicle
Unknown
Launch site
Xichang Space Center, China (XSC)
Object type
Payload
Rocket body
Debris
Shape & HBR
Cyl + Cone, 0.8 m
Radar Cross Section
1.571 m²

Expand to show TLE details & history
Last TLE update: 18 hours ago

TLE from 18 hours ago
0 FENGYUN 2G AKM
1 40369U 14090C   26061.40865723 -.00000328  00000-0  00000+0 0  9999
2 40369   7.2883  69.9033 0047987 172.3861 187.8726  0.99588215 40577
Epoch: 2026-03-02T09:48Z
TLE epoch observation values (Epoch: 2026-03-02T09:48:27.984Z)
Latitude
Longitude
122.79038°
Altitude
36,179.064 km
Speed
3.053 km/s
True Right ascension
04h 40m 26s
True Declination
0° 00' 00"
Sunlit
Object was in daylight at epoch
Visualization orbit readout
Latitude
Unknown
Longitude
Unknown
Altitude
Unknown
Speed
Unknown
Apparent Right ascension
Unknown
Apparent Declination
Unknown
Sunlit
N/A
Visualization observer readout
Local Sidereal Time
07:36:10
Azimuth
Unknown
Elevation
Unknown
Doppler factor
Unknown
Orbital elements
Apogee altitude
36,183.626 km
Perigee altitude
35,777.095 km
Semi-major axis
42,358.497 km
Eccentricity
0.0048
Inclination
7.2883°
RAAN
69.9033°
Arg. of periapsis
172.3861°
True anomaly
187.79773°
Mean anomaly
187.8726°
Eccentric anomaly
187.83512°
Mean motion
0.24896 °/min
Orbital period
1,446.01 mins
BSTAR
0
Loading maneuver chart data...
Computing Atmospheric mass density...
Loading historical data...
Loading historical data...
Loading historical data...
Loading historical data...
Loading historical data...
Loading historical data...
Loading historical data...
Other satellites on launch #90 in the year 2014 (2014-12-31 UTC)

Documentation

Showing up to 5 results
|